Location: Edinburgh
(55.9500°N, 3.1600°W)
Time: 00:53:29
(UTC+00:00)

N. Korean satellite - Pass Details

Date: 10 October 2017
Orbit: 461 x 513 km, 97.2° (Epoch: 14 December)

Event Time Altitude Azimuth Distance (km) Brightness Sun altitude
Rises 19:45:26 0° 191° (S) 2,556 10.3 -12.2°
Reaches altitude 10° 19:47:42 10° 203° (SSW) 1,670 9.5 -12.5°
Maximum altitude 19:50:51 29° 265° (W) 921 8.8 -12.9°
Drops below altitude 10° 19:54:00 10° 327° (NNW) 1,657 9.8 -13.3°
Sets 19:56:15 0° 339° (NNW) 2,532 10.6 -13.7°
